contact:dominique.lefevre@mio.osupytheas.fr, maurice.libes@osupytheas.fr, didier.mallarino@osupytheas.fr
Project:EMSO http://www.emso-fr.org/EMSO-France
Depth: 2436.0 m
Title:EMSO Ligure Ouest : Data MII capteur MICROCAT
DateTime_Computer,Latitude,Longitude,Temperature,Conductivity,Pressure,DateTime_Instrument
DateTime_Computer,Latitude,Longitude,degC,S m-1,dbar,DateTime_Instrument
2017-10-15T00:00:24Z,42.805,6.029,13.2952,4.59977,2471.942,2017-10-15T02:01:49Z
2017-10-15T00:01:59Z,42.805,6.029,13.2959,4.59995,2471.979,2017-10-15T02:03:23Z
2017-10-15T00:03:34Z,42.805,6.029,13.2958,4.59984,2471.987,2017-10-15T02:04:58Z
2017-10-15T00:05:08Z,42.805,6.029,13.2957,4.60009,2472.002,2017-10-15T02:06:33Z
2017-10-15T00:06:43Z,42.805,6.029,13.2973,4.59984,2471.979,2017-10-15T02:08:08Z
2017-10-15T00:08:18Z,42.805,6.029,13.2948,4.60003,2472.002,2017-10-15T02:09:43Z
2017-10-15T00:09:53Z,42.805,6.029,13.2954,4.60015,2472.002,2017-10-15T02:11:17Z
2017-10-15T00:11:28Z,42.805,6.029,13.2950,4.60003,2472.024,2017-10-15T02:12:52Z
2017-10-15T00:13:03Z,42.805,6.029,13.2964,4.59980,2471.979,2017-10-15T02:14:27Z
2017-10-15T00:14:37Z,42.805,6.029,13.2967,4.59985,2471.964,2017-10-15T02:16:02Z
2017-10-15T00:16:12Z,42.805,6.029,13.2961,4.59990,2471.979,2017-10-15T02:17:37Z
2017-10-15T00:17:47Z,42.805,6.029,13.2968,4.59979,2471.979,2017-10-15T02:19:12Z
2017-10-15T00:19:22Z,42.805,6.029,13.2960,4.59970,2471.987,2017-10-15T02:20:47Z
2017-10-15T00:20:57Z,42.805,6.029,13.2955,4.59978,2471.964,2017-10-15T02:22:21Z
2017-10-15T00:22:32Z,42.805,6.029,13.2951,4.59975,2471.979,2017-10-15T02:23:56Z
2017-10-15T00:24:06Z,42.805,6.029,13.2949,4.59985,2471.979,2017-10-15T02:25:31Z
2017-10-15T00:25:41Z,42.805,6.029,13.2972,4.59995,2471.964,2017-10-15T02:27:06Z
2017-10-15T00:27:16Z,42.805,6.029,13.2970,4.59977,2472.002,2017-10-15T02:28:41Z
2017-10-15T00:28:51Z,42.805,6.029,13.2966,4.59983,2471.979,2017-10-15T02:30:16Z
2017-10-15T00:30:26Z,42.805,6.029,13.2957,4.59975,2472.002,2017-10-15T02:31:50Z
2017-10-15T00:32:01Z,42.805,6.029,13.2958,4.59975,2472.002,2017-10-15T02:33:25Z
2017-10-15T00:33:35Z,42.805,6.029,13.2955,4.59974,2471.979,2017-10-15T02:35:00Z
2017-10-15T00:35:10Z,42.805,6.029,13.2953,4.59990,2472.002,2017-10-15T02:36:35Z
2017-10-15T00:36:45Z,42.805,6.029,13.2955,4.59978,2472.002,2017-10-15T02:38:10Z
2017-10-15T00:38:20Z,42.805,6.029,13.2948,4.59986,2471.987,2017-10-15T02:39:45Z
2017-10-15T00:39:55Z,42.805,6.029,13.2952,4.59987,2471.987,2017-10-15T02:41:19Z
2017-10-15T00:41:30Z,42.805,6.029,13.2962,4.59975,2472.002,2017-10-15T02:42:54Z
2017-10-15T00:43:04Z,42.805,6.029,13.2949,4.59987,2472.002,2017-10-15T02:44:29Z
2017-10-15T00:44:39Z,42.805,6.029,13.2949,4.59987,2472.024,2017-10-15T02:46:04Z
2017-10-15T00:46:14Z,42.805,6.029,13.2964,4.59986,2471.979,2017-10-15T02:47:39Z
2017-10-15T00:47:49Z,42.805,6.029,13.2958,4.59992,2472.016,2017-10-15T02:49:14Z
2017-10-15T00:49:24Z,42.805,6.029,13.2954,4.59987,2472.01,2017-10-15T02:50:48Z
2017-10-15T00:50:59Z,42.805,6.029,13.2950,4.59990,2472.002,2017-10-15T02:52:23Z
2017-10-15T00:52:34Z,42.805,6.029,13.2946,4.59995,2472.002,2017-10-15T02:53:58Z
2017-10-15T00:54:08Z,42.805,6.029,13.2957,4.59995,2472.002,2017-10-15T02:55:33Z
2017-10-15T00:55:43Z,42.805,6.029,13.2948,4.60009,2472.024,2017-10-15T02:57:08Z
2017-10-15T00:57:18Z,42.805,6.029,13.2953,4.59995,2472.01,2017-10-15T02:58:43Z
2017-10-15T00:58:53Z,42.805,6.029,13.2951,4.59990,2472.002,2017-10-15T03:00:17Z
2017-10-15T01:00:28Z,42.805,6.029,13.2958,4.59998,2472.002,2017-10-15T03:01:52Z
2017-10-15T01:02:03Z,42.805,6.029,13.2947,4.59997,2472.002,2017-10-15T03:03:27Z
2017-10-15T01:03:37Z,42.805,6.029,13.2948,4.59988,2472.024,2017-10-15T03:05:02Z
2017-10-15T01:05:12Z,42.805,6.029,13.2948,4.60014,2472.024,2017-10-15T03:06:37Z
2017-10-15T01:06:47Z,42.805,6.029,13.2949,4.59993,2472.01,2017-10-15T03:08:12Z
2017-10-15T01:08:22Z,42.805,6.029,13.2954,4.59997,2472.01,2017-10-15T03:09:46Z
2017-10-15T01:09:57Z,42.805,6.029,13.2954,4.59994,2472.002,2017-10-15T03:11:21Z
2017-10-15T01:11:32Z,42.805,6.029,13.2951,4.59995,2472.002,2017-10-15T03:12:56Z
2017-10-15T01:13:06Z,42.805,6.029,13.2957,4.59991,2472.024,2017-10-15T03:14:31Z
2017-10-15T01:14:41Z,42.805,6.029,13.2944,4.59992,2472.024,2017-10-15T03:16:06Z
2017-10-15T01:16:16Z,42.805,6.029,13.2946,4.59982,2472.002,2017-10-15T03:17:41Z
2017-10-15T01:17:51Z,42.805,6.029,13.2957,4.59992,2472.002,2017-10-15T03:19:15Z
2017-10-15T01:19:26Z,42.805,6.029,13.2961,4.59990,2472.01,2017-10-15T03:20:50Z
2017-10-15T01:21:01Z,42.805,6.029,13.2965,4.59987,2472.024,2017-10-15T03:22:25Z
2017-10-15T01:22:35Z,42.805,6.029,13.2955,4.59984,2472.002,2017-10-15T03:24:00Z
2017-10-15T01:24:10Z,42.805,6.029,13.2966,4.59992,2472.002,2017-10-15T03:25:35Z
2017-10-15T01:25:45Z,42.805,6.029,13.2951,4.59984,2472.024,2017-10-15T03:27:10Z
2017-10-15T01:27:20Z,42.805,6.029,13.2945,4.59981,2472.039,2017-10-15T03:28:44Z
2017-10-15T01:28:55Z,42.805,6.029,13.2948,4.59991,2471.987,2017-10-15T03:30:19Z
2017-10-15T01:30:30Z,42.805,6.029,13.2950,4.59987,2472.032,2017-10-15T03:31:54Z
2017-10-15T01:32:04Z,42.805,6.029,13.2950,4.59993,2472.047,2017-10-15T03:33:29Z
2017-10-15T01:33:39Z,42.805,6.029,13.2948,4.59996,2472.024,2017-10-15T03:35:04Z
2017-10-15T01:35:14Z,42.805,6.029,13.2950,4.59986,2472.01,2017-10-15T03:36:39Z
2017-10-15T01:36:49Z,42.805,6.029,13.2947,4.59991,2472.01,2017-10-15T03:38:14Z
2017-10-15T01:38:24Z,42.805,6.029,13.2954,4.59982,2472.024,2017-10-15T03:39:48Z
2017-10-15T01:39:59Z,42.805,6.029,13.2961,4.59998,2472.024,2017-10-15T03:41:23Z
2017-10-15T01:41:33Z,42.805,6.029,13.2948,4.59995,2472.047,2017-10-15T03:42:58Z
2017-10-15T01:43:08Z,42.805,6.029,13.2958,4.60004,2472.024,2017-10-15T03:44:33Z
2017-10-15T01:44:43Z,42.805,6.029,13.2949,4.59989,2472.047,2017-10-15T03:46:08Z
2017-10-15T01:46:18Z,42.805,6.029,13.2948,4.60004,2472.024,2017-10-15T03:47:43Z
2017-10-15T01:47:53Z,42.805,6.029,13.2955,4.59998,2472.01,2017-10-15T03:49:17Z
2017-10-15T01:49:28Z,42.805,6.029,13.2958,4.59984,2472.047,2017-10-15T03:50:52Z
2017-10-15T01:51:02Z,42.805,6.029,13.2945,4.59991,2472.024,2017-10-15T03:52:27Z
2017-10-15T01:52:37Z,42.805,6.029,13.2946,4.59992,2472.002,2017-10-15T03:54:02Z
2017-10-15T01:54:12Z,42.805,6.029,13.2940,4.59977,2472.024,2017-10-15T03:55:37Z
2017-10-15T01:55:47Z,42.805,6.029,13.2942,4.59970,2472.024,2017-10-15T03:57:12Z
2017-10-15T01:57:22Z,42.805,6.029,13.2940,4.59991,2472.032,2017-10-15T03:58:46Z
2017-10-15T01:58:57Z,42.805,6.029,13.2945,4.59992,2472.047,2017-10-15T04:00:21Z
2017-10-15T02:00:31Z,42.805,6.029,13.2941,4.59995,2472.01,2017-10-15T04:01:56Z
2017-10-15T02:02:06Z,42.805,6.029,13.2941,4.59972,2472.01,2017-10-15T04:03:31Z
2017-10-15T02:03:41Z,42.805,6.029,13.2942,4.59980,2472.062,2017-10-15T04:05:06Z
2017-10-15T02:05:16Z,42.805,6.029,13.2951,4.60000,2472.01,2017-10-15T04:06:41Z
2017-10-15T02:06:51Z,42.805,6.029,13.2948,4.59993,2472.069,2017-10-15T04:08:15Z
2017-10-15T02:08:26Z,42.805,6.029,13.2949,4.60023,2472.032,2017-10-15T04:09:50Z
2017-10-15T02:10:00Z,42.805,6.029,13.2941,4.59974,2472.047,2017-10-15T04:11:25Z
2017-10-15T02:11:35Z,42.805,6.029,13.2944,4.59984,2471.964,2017-10-15T04:13:00Z
2017-10-15T02:13:10Z,42.805,6.029,13.2944,4.59992,2472.01,2017-10-15T04:14:35Z
2017-10-15T02:14:45Z,42.805,6.029,13.2958,4.59989,2472.01,2017-10-15T04:16:10Z
2017-10-15T02:16:20Z,42.805,6.029,13.2945,4.60005,2472.047,2017-10-15T04:17:44Z
2017-10-15T02:17:55Z,42.805,6.029,13.2945,4.59997,2472.024,2017-10-15T04:19:19Z
2017-10-15T02:19:29Z,42.805,6.029,13.2956,4.59992,2472.047,2017-10-15T04:20:54Z
2017-10-15T02:21:04Z,42.805,6.029,13.2948,4.59998,2472.047,2017-10-15T04:22:29Z
2017-10-15T02:22:39Z,42.805,6.029,13.2948,4.59975,2472.047,2017-10-15T04:24:04Z
2017-10-15T02:24:14Z,42.805,6.029,13.2940,4.59987,2472.069,2017-10-15T04:25:39Z
2017-10-15T02:25:49Z,42.805,6.029,13.2957,4.59998,2472.069,2017-10-15T04:27:13Z
2017-10-15T02:27:24Z,42.805,6.029,13.2946,4.59990,2472.024,2017-10-15T04:28:48Z
2017-10-15T02:28:59Z,42.805,6.029,13.2948,4.60007,2472.047,2017-10-15T04:30:23Z
2017-10-15T02:30:33Z,42.805,6.029,13.2942,4.59978,2472.032,2017-10-15T04:31:58Z
2017-10-15T02:32:08Z,42.805,6.029,13.2945,4.59988,2472.047,2017-10-15T04:33:33Z
2017-10-15T02:33:43Z,42.805,6.029,13.2940,4.59975,2472.032,2017-10-15T04:35:08Z
2017-10-15T02:35:18Z,42.805,6.029,13.2942,4.59970,2472.069,2017-10-15T04:36:42Z
2017-10-15T02:36:53Z,42.805,6.029,13.2948,4.59972,2472.055,2017-10-15T04:38:17Z
2017-10-15T02:38:28Z,42.805,6.029,13.2943,4.59988,2472.055,2017-10-15T04:39:52Z
2017-10-15T02:40:02Z,42.805,6.029,13.2948,4.60002,2472.024,2017-10-15T04:41:27Z
2017-10-15T02:41:37Z,42.805,6.029,13.2945,4.59997,2472.069,2017-10-15T04:43:02Z
2017-10-15T02:43:12Z,42.805,6.029,13.2954,4.59990,2472.047,2017-10-15T04:44:37Z
2017-10-15T02:44:47Z,42.805,6.029,13.2942,4.59970,2472.047,2017-10-15T04:46:11Z
2017-10-15T02:46:22Z,42.805,6.029,13.2941,4.59967,2472.047,2017-10-15T04:47:46Z
2017-10-15T02:47:57Z,42.805,6.029,13.2941,4.59975,2472.032,2017-10-15T04:49:21Z
2017-10-15T02:49:31Z,42.805,6.029,13.2945,4.59987,2472.069,2017-10-15T04:50:56Z
2017-10-15T02:51:06Z,42.805,6.029,13.2943,4.59977,2472.069,2017-10-15T04:52:31Z
2017-10-15T02:52:41Z,42.805,6.029,13.2945,4.59990,2472.069,2017-10-15T04:54:06Z
2017-10-15T02:54:16Z,42.805,6.029,13.2948,4.59990,2472.032,2017-10-15T04:55:41Z
2017-10-15T02:55:51Z,42.805,6.029,13.2943,4.59994,2472.069,2017-10-15T04:57:15Z
2017-10-15T02:57:26Z,42.805,6.029,13.2948,4.60002,2472.069,2017-10-15T04:58:50Z
2017-10-15T02:59:00Z,42.805,6.029,13.2953,4.59998,2472.032,2017-10-15T05:00:25Z
2017-10-15T03:00:35Z,42.805,6.029,13.2950,4.59994,2472.047,2017-10-15T05:02:00Z
2017-10-15T03:02:10Z,42.805,6.029,13.2952,4.60001,2472.047,2017-10-15T05:03:35Z
2017-10-15T03:03:45Z,42.805,6.029,13.2940,4.59979,2472.055,2017-10-15T05:05:10Z
2017-10-15T03:05:20Z,42.805,6.029,13.2948,4.59971,2472.047,2017-10-15T05:06:44Z
2017-10-15T03:06:55Z,42.805,6.029,13.2944,4.59981,2472.047,2017-10-15T05:08:19Z
2017-10-15T03:08:29Z,42.805,6.029,13.2941,4.59984,2472.047,2017-10-15T05:09:54Z
2017-10-15T03:10:04Z,42.805,6.029,13.2944,4.59967,2472.055,2017-10-15T05:11:29Z
2017-10-15T03:11:39Z,42.805,6.029,13.2945,4.59979,2472.032,2017-10-15T05:13:04Z
2017-10-15T03:13:14Z,42.805,6.029,13.2943,4.59987,2472.047,2017-10-15T05:14:39Z
2017-10-15T03:14:49Z,42.805,6.029,13.2942,4.59991,2472.047,2017-10-15T05:16:13Z
2017-10-15T03:16:24Z,42.805,6.029,13.2941,4.59979,2472.032,2017-10-15T05:17:48Z
2017-10-15T03:17:58Z,42.805,6.029,13.2941,4.59972,2472.069,2017-10-15T05:19:23Z
2017-10-15T03:19:33Z,42.805,6.029,13.2943,4.59967,2472.077,2017-10-15T05:20:58Z
2017-10-15T03:21:08Z,42.805,6.029,13.2941,4.59969,2472.055,2017-10-15T05:22:33Z
2017-10-15T03:22:43Z,42.805,6.029,13.2943,4.59980,2472.032,2017-10-15T05:24:08Z
2017-10-15T03:24:18Z,42.805,6.029,13.2941,4.59968,2472.069,2017-10-15T05:25:42Z
2017-10-15T03:25:53Z,42.805,6.029,13.2943,4.59979,2472.055,2017-10-15T05:27:17Z
2017-10-15T03:27:27Z,42.805,6.029,13.2943,4.59970,2472.077,2017-10-15T05:28:52Z
2017-10-15T03:29:02Z,42.805,6.029,13.2941,4.59970,2472.047,2017-10-15T05:30:27Z
2017-10-15T03:30:37Z,42.805,6.029,13.2940,4.59970,2472.069,2017-10-15T05:32:02Z
2017-10-15T03:32:12Z,42.805,6.029,13.2940,4.59974,2472.055,2017-10-15T05:33:37Z
2017-10-15T03:33:47Z,42.805,6.029,13.2942,4.59972,2472.069,2017-10-15T05:35:11Z
2017-10-15T03:35:22Z,42.805,6.029,13.2943,4.59970,2472.032,2017-10-15T05:36:46Z
2017-10-15T03:36:56Z,42.805,6.029,13.2945,4.59983,2472.047,2017-10-15T05:38:21Z
2017-10-15T03:38:31Z,42.805,6.029,13.2945,4.59980,2472.032,2017-10-15T05:39:56Z
2017-10-15T03:40:06Z,42.805,6.029,13.2945,4.59975,2472.047,2017-10-15T05:41:31Z
2017-10-15T03:41:41Z,42.805,6.029,13.2942,4.59975,2472.092,2017-10-15T05:43:06Z
2017-10-15T03:43:16Z,42.805,6.029,13.2944,4.59970,2472.055,2017-10-15T05:44:40Z
2017-10-15T03:44:51Z,42.805,6.029,13.2945,4.59975,2472.069,2017-10-15T05:46:15Z
2017-10-15T03:46:25Z,42.805,6.029,13.2950,4.59983,2472.069,2017-10-15T05:47:50Z
2017-10-15T03:48:00Z,42.805,6.029,13.2943,4.59978,2472.069,2017-10-15T05:49:25Z
2017-10-15T03:49:35Z,42.805,6.029,13.2949,4.59975,2472.069,2017-10-15T05:51:00Z
2017-10-15T03:51:10Z,42.805,6.029,13.2949,4.59990,2472.092,2017-10-15T05:52:35Z
2017-10-15T03:52:45Z,42.805,6.029,13.2941,4.59983,2472.055,2017-10-15T05:54:09Z
2017-10-15T03:54:20Z,42.805,6.029,13.2944,4.59992,2472.055,2017-10-15T05:55:44Z
2017-10-15T03:55:54Z,42.805,6.029,13.2939,4.59969,2472.024,2017-10-15T05:57:19Z
2017-10-15T03:57:29Z,42.805,6.029,13.2942,4.59979,2472.055,2017-10-15T05:58:54Z
2017-10-15T03:59:04Z,42.805,6.029,13.2940,4.59975,2472.032,2017-10-15T06:00:29Z
2017-10-15T04:00:39Z,42.805,6.029,13.2955,4.59977,2472.092,2017-10-15T06:02:04Z
2017-10-15T04:02:14Z,42.805,6.029,13.2943,4.59975,2472.069,2017-10-15T06:03:38Z
2017-10-15T04:03:49Z,42.805,6.029,13.2944,4.59971,2472.032,2017-10-15T06:05:13Z
2017-10-15T04:05:23Z,42.805,6.029,13.2941,4.59965,2472.055,2017-10-15T06:06:48Z
2017-10-15T04:06:58Z,42.805,6.029,13.2945,4.59966,2472.069,2017-10-15T06:08:23Z
2017-10-15T04:08:33Z,42.805,6.029,13.2948,4.59972,2472.055,2017-10-15T06:09:58Z
2017-10-15T04:10:08Z,42.805,6.029,13.2943,4.59974,2472.069,2017-10-15T06:11:33Z
2017-10-15T04:11:43Z,42.805,6.029,13.2940,4.59973,2472.055,2017-10-15T06:13:07Z
2017-10-15T04:13:18Z,42.805,6.029,13.2945,4.59975,2472.069,2017-10-15T06:14:42Z
2017-10-15T04:14:53Z,42.805,6.029,13.2948,4.59979,2472.092,2017-10-15T06:16:17Z
2017-10-15T04:16:27Z,42.805,6.029,13.2940,4.59967,2472.069,2017-10-15T06:17:52Z
2017-10-15T04:18:02Z,42.805,6.029,13.2941,4.59967,2472.055,2017-10-15T06:19:27Z
2017-10-15T04:19:37Z,42.805,6.029,13.2961,4.59978,2472.047,2017-10-15T06:21:02Z
2017-10-15T04:21:12Z,42.805,6.029,13.2946,4.59995,2472.069,2017-10-15T06:22:36Z
2017-10-15T04:22:47Z,42.805,6.029,13.2962,4.60001,2472.024,2017-10-15T06:24:11Z
2017-10-15T04:24:22Z,42.805,6.029,13.2941,4.59978,2472.069,2017-10-15T06:25:46Z
2017-10-15T04:25:56Z,42.805,6.029,13.2948,4.59988,2472.047,2017-10-15T06:27:21Z
2017-10-15T04:27:31Z,42.805,6.029,13.2942,4.59975,2472.069,2017-10-15T06:28:56Z
2017-10-15T04:29:06Z,42.805,6.029,13.2943,4.59971,2472.069,2017-10-15T06:30:31Z
2017-10-15T04:30:41Z,42.805,6.029,13.2940,4.59978,2472.069,2017-10-15T06:32:05Z
2017-10-15T04:32:16Z,42.805,6.029,13.2946,4.59985,2472.047,2017-10-15T06:33:40Z
2017-10-15T04:33:51Z,42.805,6.029,13.2940,4.59975,2472.047,2017-10-15T06:35:15Z
2017-10-15T04:35:25Z,42.805,6.029,13.2940,4.59965,2472.047,2017-10-15T06:36:50Z
2017-10-15T04:37:00Z,42.805,6.029,13.2941,4.59966,2472.032,2017-10-15T06:38:25Z
2017-10-15T04:38:35Z,42.805,6.029,13.2946,4.59977,2472.069,2017-10-15T06:40:00Z
2017-10-15T04:40:10Z,42.805,6.029,13.2946,4.59990,2472.055,2017-10-15T06:41:34Z
2017-10-15T04:41:45Z,42.805,6.029,13.2942,4.59988,2472.047,2017-10-15T06:43:09Z
2017-10-15T04:43:20Z,42.805,6.029,13.2940,4.59968,2472.055,2017-10-15T06:44:44Z
2017-10-15T04:44:54Z,42.805,6.029,13.2951,4.59983,2472.092,2017-10-15T06:46:19Z
2017-10-15T04:46:29Z,42.805,6.029,13.2954,4.59999,2472.069,2017-10-15T06:47:54Z
2017-10-15T04:48:04Z,42.805,6.029,13.2950,4.59994,2472.032,2017-10-15T06:49:29Z
2017-10-15T04:49:39Z,42.805,6.029,13.2949,4.59992,2472.047,2017-10-15T06:51:04Z
2017-10-15T04:51:14Z,42.805,6.029,13.2958,4.60006,2472.047,2017-10-15T06:52:38Z
2017-10-15T04:52:49Z,42.805,6.029,13.2950,4.59994,2472.069,2017-10-15T06:54:13Z
2017-10-15T04:54:23Z,42.805,6.029,13.2940,4.59984,2472.047,2017-10-15T06:55:48Z
2017-10-15T04:55:58Z,42.805,6.029,13.2939,4.59968,2472.047,2017-10-15T06:57:23Z
2017-10-15T04:57:33Z,42.805,6.029,13.2937,4.59970,2472.047,2017-10-15T06:58:58Z
2017-10-15T04:59:08Z,42.805,6.029,13.2940,4.59968,2472.069,2017-10-15T07:00:33Z
2017-10-15T05:00:43Z,42.805,6.029,13.2947,4.59975,2472.069,2017-10-15T07:02:07Z
2017-10-15T05:02:18Z,42.805,6.029,13.2962,4.59991,2472.077,2017-10-15T07:03:42Z
2017-10-15T05:03:52Z,42.805,6.029,13.2943,4.59984,2472.047,2017-10-15T07:05:17Z
2017-10-15T05:05:27Z,42.805,6.029,13.2940,4.59970,2472.047,2017-10-15T07:06:52Z
2017-10-15T05:07:02Z,42.805,6.029,13.2942,4.59971,2472.069,2017-10-15T07:08:27Z
2017-10-15T05:08:37Z,42.805,6.029,13.2945,4.59975,2472.055,2017-10-15T07:10:02Z
2017-10-15T05:10:12Z,42.805,6.029,13.2957,4.59985,2472.047,2017-10-15T07:11:36Z
2017-10-15T05:11:47Z,42.805,6.029,13.2958,4.60000,2472.047,2017-10-15T07:13:11Z
2017-10-15T05:13:21Z,42.805,6.029,13.2957,4.60006,2472.047,2017-10-15T07:14:46Z
2017-10-15T05:14:56Z,42.805,6.029,13.2972,4.60002,2472.062,2017-10-15T07:16:21Z
2017-10-15T05:16:31Z,42.805,6.029,13.2950,4.59991,2472.069,2017-10-15T07:17:56Z
2017-10-15T05:18:06Z,42.805,6.029,13.2965,4.60018,2472.047,2017-10-15T07:19:31Z
2017-10-15T05:19:41Z,42.805,6.029,13.2948,4.59995,2472.084,2017-10-15T07:21:05Z
2017-10-15T05:21:16Z,42.805,6.029,13.2948,4.59990,2472.047,2017-10-15T07:22:40Z
2017-10-15T05:22:50Z,42.805,6.029,13.2951,4.60005,2472.055,2017-10-15T07:24:15Z
2017-10-15T05:24:25Z,42.805,6.029,13.2946,4.60001,2472.047,2017-10-15T07:25:50Z
2017-10-15T05:26:00Z,42.805,6.029,13.2941,4.59980,2472.032,2017-10-15T07:27:25Z
2017-10-15T05:27:35Z,42.805,6.029,13.2945,4.59976,2472.047,2017-10-15T07:29:00Z
2017-10-15T05:29:10Z,42.805,6.029,13.2950,4.59990,2472.069,2017-10-15T07:30:34Z
2017-10-15T05:30:45Z,42.805,6.029,13.2942,4.59998,2472.069,2017-10-15T07:32:09Z
2017-10-15T05:32:19Z,42.805,6.029,13.2946,4.60003,2472.047,2017-10-15T07:33:44Z
2017-10-15T05:33:54Z,42.805,6.029,13.2944,4.59978,2472.047,2017-10-15T07:35:19Z
2017-10-15T05:35:29Z,42.805,6.029,13.2939,4.59967,2472.047,2017-10-15T07:36:54Z
2017-10-15T05:37:04Z,42.805,6.029,13.2940,4.59965,2472.024,2017-10-15T07:38:29Z
2017-10-15T05:38:39Z,42.805,6.029,13.2947,4.59966,2472.047,2017-10-15T07:40:03Z
2017-10-15T05:40:14Z,42.805,6.029,13.2949,4.59974,2472.024,2017-10-15T07:41:38Z
2017-10-15T05:41:48Z,42.805,6.029,13.2950,4.59992,2472.055,2017-10-15T07:43:13Z
2017-10-15T05:43:23Z,42.805,6.029,13.2954,4.59999,2472.047,2017-10-15T07:44:48Z
2017-10-15T05:44:58Z,42.805,6.029,13.2945,4.60003,2472.047,2017-10-15T07:46:23Z
2017-10-15T05:46:33Z,42.805,6.029,13.2946,4.59998,2472.055,2017-10-15T07:47:58Z
2017-10-15T05:48:08Z,42.805,6.029,13.2949,4.59992,2472.032,2017-10-15T07:49:32Z
2017-10-15T05:49:43Z,42.805,6.029,13.2947,4.59977,2472.047,2017-10-15T07:51:07Z
2017-10-15T05:51:17Z,42.805,6.029,13.2943,4.59970,2472.024,2017-10-15T07:52:42Z
2017-10-15T05:52:52Z,42.805,6.029,13.2940,4.59973,2472.024,2017-10-15T07:54:17Z
2017-10-15T05:54:27Z,42.805,6.029,13.2944,4.59993,2472.047,2017-10-15T07:55:52Z
2017-10-15T05:56:02Z,42.805,6.029,13.2944,4.59990,2472.024,2017-10-15T07:57:27Z
2017-10-15T05:57:37Z,42.805,6.029,13.2939,4.59972,2472.055,2017-10-15T07:59:01Z
2017-10-15T05:59:12Z,42.805,6.029,13.2939,4.59971,2472.047,2017-10-15T08:00:36Z
2017-10-15T06:00:46Z,42.805,6.029,13.2943,4.59975,2472.062,2017-10-15T08:02:11Z
2017-10-15T06:02:21Z,42.805,6.029,13.2945,4.59972,2472.047,2017-10-15T08:03:46Z
2017-10-15T06:03:56Z,42.805,6.029,13.2946,4.59984,2472.047,2017-10-15T08:05:21Z
2017-10-15T06:05:31Z,42.805,6.029,13.2944,4.59984,2472.024,2017-10-15T08:06:56Z
2017-10-15T06:07:06Z,42.805,6.029,13.2954,4.59989,2472.047,2017-10-15T08:08:30Z
2017-10-15T06:08:41Z,42.805,6.029,13.2952,4.59998,2472.032,2017-10-15T08:10:05Z
2017-10-15T06:10:16Z,42.805,6.029,13.2949,4.60004,2472.047,2017-10-15T08:11:40Z
2017-10-15T06:11:50Z,42.805,6.029,13.2964,4.60001,2472.032,2017-10-15T08:13:15Z
2017-10-15T06:13:25Z,42.805,6.029,13.2954,4.60010,2472.047,2017-10-15T08:14:50Z
2017-10-15T06:15:00Z,42.805,6.029,13.2945,4.60000,2472.032,2017-10-15T08:16:25Z
2017-10-15T06:16:35Z,42.805,6.029,13.2945,4.59984,2472.024,2017-10-15T08:17:59Z
2017-10-15T06:18:10Z,42.805,6.029,13.2949,4.59992,2472.069,2017-10-15T08:19:34Z
2017-10-15T06:19:45Z,42.805,6.029,13.2943,4.59996,2472.047,2017-10-15T08:21:09Z
2017-10-15T06:21:19Z,42.805,6.029,13.2948,4.59984,2472.01,2017-10-15T08:22:44Z
2017-10-15T06:22:54Z,42.805,6.029,13.2940,4.59972,2472.024,2017-10-15T08:24:19Z
2017-10-15T06:24:29Z,42.805,6.029,13.2945,4.59979,2472.024,2017-10-15T08:25:54Z
2017-10-15T06:26:04Z,42.805,6.029,13.2945,4.59987,2472.032,2017-10-15T08:27:28Z
2017-10-15T06:27:39Z,42.805,6.029,13.2941,4.59980,2472.069,2017-10-15T08:29:03Z
2017-10-15T06:29:14Z,42.805,6.029,13.2944,4.59972,2472.047,2017-10-15T08:30:38Z
2017-10-15T06:30:48Z,42.805,6.029,13.2940,4.59971,2472.01,2017-10-15T08:32:13Z
2017-10-15T06:32:23Z,42.805,6.029,13.2945,4.59982,2472.024,2017-10-15T08:33:48Z
2017-10-15T06:33:58Z,42.805,6.029,13.2957,4.59997,2472.032,2017-10-15T08:35:23Z
2017-10-15T06:35:33Z,42.805,6.029,13.2964,4.60022,2472.032,2017-10-15T08:36:58Z
2017-10-15T06:37:08Z,42.805,6.029,13.2951,4.60000,2472.032,2017-10-15T08:38:32Z
2017-10-15T06:38:43Z,42.805,6.029,13.2975,4.60003,2471.987,2017-10-15T08:40:07Z
2017-10-15T06:40:17Z,42.805,6.029,13.2958,4.60009,2472.01,2017-10-15T08:41:42Z
2017-10-15T06:41:52Z,42.805,6.029,13.2944,4.59973,2472.002,2017-10-15T08:43:17Z
2017-10-15T06:43:27Z,42.805,6.029,13.2943,4.59972,2472.024,2017-10-15T08:44:52Z
2017-10-15T06:45:02Z,42.805,6.029,13.2939,4.59971,2472.024,2017-10-15T08:46:27Z
2017-10-15T06:46:37Z,42.805,6.029,13.2944,4.59977,2472.024,2017-10-15T08:48:01Z
2017-10-15T06:48:12Z,42.805,6.029,13.2944,4.59969,2472.024,2017-10-15T08:49:36Z
2017-10-15T06:49:46Z,42.805,6.029,13.2941,4.59970,2472.024,2017-10-15T08:51:11Z
2017-10-15T06:51:21Z,42.805,6.029,13.2943,4.59972,2472.047,2017-10-15T08:52:46Z
2017-10-15T06:52:56Z,42.805,6.029,13.2946,4.59974,2472.002,2017-10-15T08:54:21Z
2017-10-15T06:54:31Z,42.805,6.029,13.2947,4.59993,2472.024,2017-10-15T08:55:56Z
2017-10-15T06:56:06Z,42.805,6.029,13.2948,4.59984,2472.024,2017-10-15T08:57:30Z
2017-10-15T06:57:41Z,42.805,6.029,13.2958,4.60005,2472.01,2017-10-15T08:59:05Z
2017-10-15T06:59:15Z,42.805,6.029,13.2955,4.60001,2472.047,2017-10-15T09:00:40Z
2017-10-15T07:00:50Z,42.805,6.029,13.2958,4.60002,2472.024,2017-10-15T09:02:15Z
2017-10-15T07:02:25Z,42.805,6.029,13.2950,4.59991,2472.002,2017-10-15T09:03:50Z
2017-10-15T07:04:00Z,42.805,6.029,13.2945,4.59994,2472.002,2017-10-15T09:05:25Z
2017-10-15T07:05:35Z,42.805,6.029,13.2946,4.59997,2472.024,2017-10-15T09:06:59Z
2017-10-15T07:07:10Z,42.805,6.029,13.2949,4.60000,2472.024,2017-10-15T09:08:34Z
2017-10-15T07:08:44Z,42.805,6.029,13.2951,4.60000,2471.987,2017-10-15T09:10:09Z
2017-10-15T07:10:19Z,42.805,6.029,13.2944,4.60001,2472.024,2017-10-15T09:11:44Z
2017-10-15T07:11:54Z,42.805,6.029,13.2951,4.59998,2472.024,2017-10-15T09:13:19Z
2017-10-15T07:13:29Z,42.805,6.029,13.2940,4.59981,2472.024,2017-10-15T09:14:54Z
2017-10-15T07:15:04Z,42.805,6.029,13.2942,4.59967,2472.01,2017-10-15T09:16:28Z
2017-10-15T07:16:39Z,42.805,6.029,13.2940,4.59972,2472.002,2017-10-15T09:18:03Z
2017-10-15T07:18:13Z,42.805,6.029,13.2942,4.59970,2472.024,2017-10-15T09:19:38Z
2017-10-15T07:19:48Z,42.805,6.029,13.2944,4.59972,2472.002,2017-10-15T09:21:13Z
2017-10-15T07:21:23Z,42.805,6.029,13.2945,4.59976,2471.995,2017-10-15T09:22:48Z
2017-10-15T07:22:58Z,42.805,6.029,13.2948,4.59990,2472.002,2017-10-15T09:24:23Z
2017-10-15T07:24:33Z,42.805,6.029,13.2952,4.60001,2472.024,2017-10-15T09:25:57Z
2017-10-15T07:26:08Z,42.805,6.029,13.2954,4.59991,2472.002,2017-10-15T09:27:32Z
2017-10-15T07:27:42Z,42.805,6.029,13.2948,4.59990,2472.01,2017-10-15T09:29:07Z
2017-10-15T07:29:17Z,42.805,6.029,13.2939,4.59986,2472.002,2017-10-15T09:30:42Z
2017-10-15T07:30:52Z,42.805,6.029,13.2945,4.59978,2472.047,2017-10-15T09:32:17Z
2017-10-15T07:32:27Z,42.805,6.029,13.2948,4.59985,2472.002,2017-10-15T09:33:52Z
2017-10-15T07:34:02Z,42.805,6.029,13.2944,4.59998,2471.987,2017-10-15T09:35:26Z
2017-10-15T07:35:37Z,42.805,6.029,13.2943,4.59980,2471.979,2017-10-15T09:37:01Z
2017-10-15T07:37:11Z,42.805,6.029,13.2951,4.59988,2472.032,2017-10-15T09:38:36Z
2017-10-15T07:38:46Z,42.805,6.029,13.2943,4.59983,2472.002,2017-10-15T09:40:11Z
2017-10-15T07:40:21Z,42.805,6.029,13.2940,4.59985,2472.002,2017-10-15T09:41:46Z
2017-10-15T07:41:56Z,42.805,6.029,13.2973,4.60011,2471.979,2017-10-15T09:43:21Z
2017-10-15T07:43:31Z,42.805,6.029,13.2953,4.59990,2471.987,2017-10-15T09:44:55Z
2017-10-15T07:45:06Z,42.805,6.029,13.2945,4.59998,2472.01,2017-10-15T09:46:30Z